Tracking 18840 objects as of 17-November-2017
HD Live streaming from Space Station
objects crossing your sky now

FENGYUN 1C DEB

Track FENGYUN 1C DEB now!
10-day predictions


NORAD ID: 31289
Int'l Code: 1999-025BNX
Perigee: 394.6 km
Apogee: 677.8 km
Inclination: 97.4 °
Period: 95.2 minutes
Semi major axis: 6907 km
RCS: 0.0151 m2 (small)
Launch date: May 10, 1999
Source: People's Republic of China (PRC)
Launch site: Taiyaun Space Center, China (TSC)

Note: This is SATELLITE DEBRIS
aabbcc
Your satellite tracking list
Your tracking list is empty




NASA's NSSDC Master Catalog

Two Line Element Set (TLE):
1 31289U 99025BNX 17320.79552773 +.00005905 +00000-0 +20582-3 0  9995
2 31289 097.4203 165.4968 0205015 354.4778 005.4191 15.12333933279191
Source of the keplerian elements: AFSPC